Voltar ao catálogo

STARLINK-36742

AtivoComunicaçõesVLEO
NORAD 67907·PAYLOAD·🇺🇸 United States

Lançado Feb 22, 2026 de Vandenberg Space Force Base

Loading…

Próximas Passagens (próximas 24 horas)

TLE

AtualizadoSource: CelesTrak SupGP

Época: Sep 15, 2026, 03:49 UTC

1 67907C 26036D   26258.15951389 -.00023136  00000+0 -83840-3 0  2580
2 67907  42.9996 255.5202 0001346 268.5842 173.5197 15.27573946    13

Acompanhe STARLINK-36742 em tempo real com AllMySat

Download on the App Store